Location: Rocktram
(38.2574°N, 122.2805°W)
Time: 00:59:44
(UTC+00:00)

MetOp-A - Pass Details

Date: 30 March 2020
Orbit: 819 x 821 km, 98.5° (Epoch: 27 May)

Event Time Altitude Azimuth Distance (km) Brightness Sun altitude
Exits shadow 04:09:16 32° 142° (SE) 1,367 4.8 -19.7°
Maximum altitude 04:11:39 63° 74° (ENE) 914 4.1 -20.1°
Drops below altitude 10° 04:16:57 10° 354° (N) 2,425 6.9 -21.0°
Sets 04:19:19 0° 351° (N) 3,361 7.8 -21.5°
